Time,TemperatureF,DewpointF,PressureIn,WindDirection,WindDirectionDegrees,WindSpeedMPH,WindSpeedGustMPH,Humidity,HourlyPrecipIn,Conditions,Clouds,dailyrainin,SoftwareType,DateUTC
2013-02-17 00:00:00,29.5,20.6,30.17,WSW,254,0.0,0.0,69,0.00,CLR,,0.00,WeatherDisplay:10.37,2013-02-17 08:00:00,
2013-02-17 00:05:00,29.4,20.5,30.19,WSW,254,0.0,0.0,69,0.00,CLR,,0.00,WeatherDisplay:10.37,2013-02-17 08:05:00,
2013-02-17 00:10:00,29.4,20.5,30.19,WSW,254,0.0,0.0,69,0.00,CLR,,0.00,WeatherDisplay:10.37,2013-02-17 08:10:00,
2013-02-17 00:15:00,29.7,20.8,30.18,WSW,254,0.0,0.0,69,0.00,CLR,,0.00,WeatherDisplay:10.37,2013-02-17 08:15:00,
2013-02-17 00:20:00,29.7,20.4,30.18,WSW,254,0.0,0.0,68,0.00,CLR,,0.00,WeatherDisplay:10.37,2013-02-17 08:20:00,
2013-02-17 00:25:00,29.7,20.4,30.18,WSW,254,0.0,0.0,68,0.00,CLR,,0.00,WeatherDisplay:10.37,2013-02-17 08:25:00,
2013-02-17 00:30:00,29.5,20.6,30.18,WSW,254,0.0,0.0,69,0.00,CLR,,0.00,WeatherDisplay:10.37,2013-02-17 08:30:00,
2013-02-17 00:35:00,29.0,20.4,30.19,WSW,254,0.0,0.0,70,0.00,CLR,,0.00,WeatherDisplay:10.37,2013-02-17 08:35:00,
2013-02-17 00:40:00,29.3,20.4,30.19,WSW,254,0.0,0.0,69,0.00,CLR,,0.00,WeatherDisplay:10.37,2013-02-17 08:40:00,
2013-02-17 00:45:00,28.7,19.5,30.19,WSW,254,0.0,0.0,68,0.00,CLR,,0.00,WeatherDisplay:10.37,2013-02-17 08:45:00,
2013-02-17 00:50:00,27.6,19.8,30.19,WSW,254,0.0,0.0,72,0.00,CLR,,0.00,WeatherDisplay:10.37,2013-02-17 08:50:00,
2013-02-17 00:55:00,27.2,19.7,30.20,WSW,254,0.0,0.0,73,0.00,CLR,,0.00,WeatherDisplay:10.37,2013-02-17 08:55:00,
2013-02-17 01:00:00,27.3,19.5,30.20,WSW,254,0.0,0.0,72,0.00,CLR,,0.00,WeatherDisplay:10.37,2013-02-17 09:00:00,
2013-02-17 01:05:00,27.2,19.7,30.19,WSW,254,0.0,0.0,73,0.00,CLR,,0.00,WeatherDisplay:10.37,2013-02-17 09:05:00,
2013-02-17 01:10:00,27.5,19.7,30.18,WSW,254,0.0,0.0,72,0.00,CLR,,0.00,WeatherDisplay:10.37,2013-02-17 09:10:00,
2013-02-17 01:15:00,27.6,19.1,30.18,WSW,254,0.0,0.0,70,0.00,CLR,,0.00,WeatherDisplay:10.37,2013-02-17 09:15:00,
2013-02-17 01:20:00,26.3,18.5,30.19,WSW,254,0.0,0.0,72,0.00,CLR,,0.00,WeatherDisplay:10.37,2013-02-17 09:20:00,
2013-02-17 01:25:00,25.1,18.3,30.20,WSW,254,0.0,0.0,75,0.00,CLR,,0.00,WeatherDisplay:10.37,2013-02-17 09:25:00,
2013-02-17 01:30:00,25.0,18.5,30.20,WSW,254,0.0,0.0,76,0.00,CLR,,0.00,WeatherDisplay:10.37,2013-02-17 09:30:00,
2013-02-17 01:35:00,25.0,17.9,30.20,WSW,254,0.0,0.0,74,0.00,CLR,,0.00,WeatherDisplay:10.37,2013-02-17 09:35:00,
2013-02-17 01:40:00,25.1,18.6,30.20,WSW,254,0.0,0.0,76,0.00,CLR,,0.00,WeatherDisplay:10.37,2013-02-17 09:40:00,
2013-02-17 01:45:00,24.7,17.9,30.20,WSW,254,0.0,0.0,75,0.00,CLR,,0.00,WeatherDisplay:10.37,2013-02-17 09:45:00,
2013-02-17 01:50:00,24.5,17.7,30.20,WSW,254,0.0,0.0,75,0.00,CLR,,0.00,WeatherDisplay:10.37,2013-02-17 09:50:00,
2013-02-17 01:55:00,24.2,17.4,30.19,WSW,254,0.0,0.0,75,0.00,CLR,,0.00,WeatherDisplay:10.37,2013-02-17 09:55:00,
2013-02-17 02:00:00,24.1,17.3,30.20,WSW,254,0.0,0.0,75,0.00,CLR,,0.00,WeatherDisplay:10.37,2013-02-17 10:00:00,
2013-02-17 02:05:00,24.2,17.4,30.20,WSW,254,0.0,0.0,75,0.00,CLR,,0.00,WeatherDisplay:10.37,2013-02-17 10:05:00,
2013-02-17 02:10:00,24.7,17.6,30.20,WSW,254,0.0,0.0,74,0.00,CLR,,0.00,WeatherDisplay:10.37,2013-02-17 10:10:00,
2013-02-17 02:15:00,25.1,17.7,30.19,WSW,254,0.0,0.0,73,0.00,CLR,,0.00,WeatherDisplay:10.37,2013-02-17 10:15:00,
2013-02-17 02:20:00,25.1,17.3,30.19,WSW,254,0.0,0.0,72,0.00,CLR,,0.00,WeatherDisplay:10.37,2013-02-17 10:20:00,
2013-02-17 02:25:00,25.0,17.2,30.19,SW,226,0.0,0.0,72,0.00,CLR,,0.00,WeatherDisplay:10.37,2013-02-17 10:25:00,
2013-02-17 02:30:00,25.0,17.2,30.19,SSW,210,0.0,0.0,72,0.00,CLR,,0.00,WeatherDisplay:10.37,2013-02-17 10:30:00,
2013-02-17 02:35:00,25.3,17.5,30.19,SSW,208,0.0,0.0,72,0.00,CLR,,0.00,WeatherDisplay:10.37,2013-02-17 10:35:00,
2013-02-17 02:40:00,25.4,17.6,30.19,SSW,208,0.0,0.0,72,0.00,CLR,,0.00,WeatherDisplay:10.37,2013-02-17 10:40:00,
2013-02-17 02:45:00,25.3,17.5,30.19,SSW,208,0.0,0.0,72,0.00,CLR,,0.00,WeatherDisplay:10.37,2013-02-17 10:45:00,
2013-02-17 02:50:00,24.8,17.1,30.19,SSW,208,0.0,0.0,72,0.00,CLR,,0.00,WeatherDisplay:10.37,2013-02-17 10:50:00,
2013-02-17 02:55:00,24.4,17.0,30.20,SSW,208,0.0,0.0,73,0.00,CLR,,0.00,WeatherDisplay:10.37,2013-02-17 10:55:00,
2013-02-17 03:00:00,24.4,17.3,30.20,SSW,208,0.0,0.0,74,0.00,CLR,,0.00,WeatherDisplay:10.37,2013-02-17 11:00:00,
2013-02-17 03:05:00,24.2,17.4,30.22,SSW,208,0.0,0.0,75,0.00,CLR,,0.00,WeatherDisplay:10.37,2013-02-17 11:05:00,
2013-02-17 03:10:00,24.4,17.6,30.22,SSW,208,0.0,0.0,75,0.00,CLR,,0.00,WeatherDisplay:10.37,2013-02-17 11:10:00,
2013-02-17 03:15:00,24.7,17.6,30.21,SW,215,2.3,0.0,74,0.00,CLR,,0.00,WeatherDisplay:10.37,2013-02-17 11:15:00,
2013-02-17 03:20:00,24.8,17.7,30.21,SSW,199,0.0,0.0,74,0.00,CLR,,0.00,WeatherDisplay:10.37,2013-02-17 11:20:00,
2013-02-17 03:25:00,25.1,17.7,30.21,SSW,200,0.0,0.0,73,0.00,CLR,,0.00,WeatherDisplay:10.37,2013-02-17 11:25:00,
2013-02-17 03:30:00,25.4,17.9,30.21,SSW,199,0.0,0.0,73,0.00,CLR,,0.00,WeatherDisplay:10.37,2013-02-17 11:30:00,
2013-02-17 03:35:00,25.6,18.1,30.21,SSW,199,0.0,0.0,73,0.00,CLR,,0.00,WeatherDisplay:10.37,2013-02-17 11:35:00,
2013-02-17 03:40:00,25.7,17.9,30.21,SSW,200,0.0,0.0,72,0.00,CLR,,0.00,WeatherDisplay:10.37,2013-02-17 11:40:00,
2013-02-17 03:45:00,24.8,17.4,30.20,SSW,200,0.0,0.0,73,0.00,CLR,,0.00,WeatherDisplay:10.37,2013-02-17 11:45:00,
2013-02-17 03:50:00,24.4,17.3,30.21,SSE,164,0.0,0.0,74,0.00,CLR,,0.00,WeatherDisplay:10.37,2013-02-17 11:50:00,
2013-02-17 03:55:00,24.4,17.6,30.22,SSE,164,0.0,0.0,75,0.00,CLR,,0.00,WeatherDisplay:10.37,2013-02-17 11:55:00,
2013-02-17 04:00:00,24.8,17.7,30.21,SSE,164,0.0,0.0,74,0.00,CLR,,0.00,WeatherDisplay:10.37,2013-02-17 12:00:00,
2013-02-17 04:05:00,24.8,17.7,30.22,SSE,164,0.0,0.0,74,0.00,CLR,,0.00,WeatherDisplay:10.37,2013-02-17 12:05:00,
2013-02-17 04:10:00,24.8,17.7,30.22,SSE,164,0.0,0.0,74,0.00,CLR,,0.00,WeatherDisplay:10.37,2013-02-17 12:10:00,
2013-02-17 04:15:00,24.4,17.3,30.21,SSE,164,0.0,0.0,74,0.00,CLR,,0.00,WeatherDisplay:10.37,2013-02-17 12:15:00,
2013-02-17 04:20:00,24.1,17.3,30.22,SSE,164,0.0,0.0,75,0.00,CLR,,0.00,WeatherDisplay:10.37,2013-02-17 12:20:00,
2013-02-17 04:25:00,23.6,17.1,30.22,SSE,162,0.0,0.0,76,0.00,CLR,,0.00,WeatherDisplay:10.37,2013-02-17 12:25:00,
2013-02-17 04:30:00,24.1,17.9,30.22,SSE,158,0.0,0.0,77,0.00,CLR,,0.00,WeatherDisplay:10.37,2013-02-17 12:30:00,
2013-02-17 04:35:00,24.1,17.6,30.22,SSE,158,0.0,0.0,76,0.00,CLR,,0.00,WeatherDisplay:10.37,2013-02-17 12:35:00,
2013-02-17 04:40:00,23.8,17.3,30.22,SSE,160,0.0,0.0,76,0.00,CLR,,0.00,WeatherDisplay:10.37,2013-02-17 12:40:00,
2013-02-17 04:45:00,23.5,17.3,30.22,SSE,160,0.0,0.0,77,0.00,CLR,,0.00,WeatherDisplay:10.37,2013-02-17 12:45:00,
2013-02-17 04:50:00,23.2,16.8,30.23,SSE,160,0.0,0.0,76,0.00,CLR,,0.00,WeatherDisplay:10.37,2013-02-17 12:50:00,
2013-02-17 04:55:00,21.9,15.5,30.23,SSE,158,0.0,0.0,76,0.00,CLR,,0.00,WeatherDisplay:10.37,2013-02-17 12:55:00,
2013-02-17 05:00:00,21.9,16.1,30.23,SSE,160,0.0,0.0,78,0.00,CLR,,0.00,WeatherDisplay:10.37,2013-02-17 13:00:00,
2013-02-17 05:05:00,21.8,16.0,30.24,SSE,158,0.0,0.0,78,0.00,CLR,,0.00,WeatherDisplay:10.37,2013-02-17 13:05:00,
2013-02-17 05:10:00,21.9,16.4,30.24,SSE,158,0.0,0.0,79,0.00,CLR,,0.00,WeatherDisplay:10.37,2013-02-17 13:10:00,
2013-02-17 05:15:00,21.9,16.4,30.24,SSE,160,0.0,0.0,79,0.00,CLR,,0.00,WeatherDisplay:10.37,2013-02-17 13:15:00,
2013-02-17 05:20:00,22.1,16.3,30.24,SSE,160,0.0,0.0,78,0.00,CLR,,0.00,WeatherDisplay:10.37,2013-02-17 13:20:00,
2013-02-17 05:25:00,21.6,15.5,30.24,SSE,158,0.0,0.0,77,0.00,CLR,,0.00,WeatherDisplay:10.37,2013-02-17 13:25:00,
2013-02-17 05:30:00,21.4,15.9,30.24,SSE,160,0.0,0.0,79,0.00,CLR,,0.00,WeatherDisplay:10.37,2013-02-17 13:30:00,
2013-02-17 05:35:00,21.4,15.9,30.24,SSE,160,0.0,0.0,79,0.00,CLR,,0.00,WeatherDisplay:10.37,2013-02-17 13:35:00,
2013-02-17 05:40:00,21.4,15.6,30.24,SSE,155,0.0,0.0,78,0.00,CLR,,0.00,WeatherDisplay:10.37,2013-02-17 13:40:00,
2013-02-17 05:45:00,21.6,15.8,30.23,SSE,155,0.0,0.0,78,0.00,CLR,,0.00,WeatherDisplay:10.37,2013-02-17 13:45:00,
2013-02-17 05:50:00,21.6,15.8,30.23,SSE,155,0.0,0.0,78,0.00,CLR,,0.00,WeatherDisplay:10.37,2013-02-17 13:50:00,
2013-02-17 05:55:00,21.4,15.6,30.24,SSE,155,0.0,0.0,78,0.00,CLR,,0.00,WeatherDisplay:10.37,2013-02-17 13:55:00,
2013-02-17 06:00:00,21.0,15.2,30.24,SSE,155,0.0,0.0,78,0.00,CLR,,0.00,WeatherDisplay:10.37,2013-02-17 14:00:00,
2013-02-17 06:05:00,21.0,15.5,30.25,SSE,155,0.0,0.0,79,0.00,CLR,,0.00,WeatherDisplay:10.37,2013-02-17 14:05:00,
2013-02-17 06:10:00,21.3,15.5,30.26,SSE,155,0.0,0.0,78,0.00,CLR,,0.00,WeatherDisplay:10.37,2013-02-17 14:10:00,
2013-02-17 06:15:00,21.1,15.6,30.26,SSE,155,0.0,0.0,79,0.00,CLR,,0.00,WeatherDisplay:10.37,2013-02-17 14:15:00,
2013-02-17 06:20:00,21.4,15.3,30.26,SSE,157,0.0,0.0,77,0.00,CLR,,0.00,WeatherDisplay:10.37,2013-02-17 14:20:00,
2013-02-17 06:25:00,21.6,15.8,30.26,SSE,157,0.0,0.0,78,0.00,CLR,,0.00,WeatherDisplay:10.37,2013-02-17 14:25:00,
2013-02-17 06:30:00,21.9,16.1,30.25,SSE,157,0.0,0.0,78,0.00,CLR,,0.00,WeatherDisplay:10.37,2013-02-17 14:30:00,
2013-02-17 06:35:00,22.2,16.1,30.25,SSE,157,0.0,0.0,77,0.00,CLR,,0.00,WeatherDisplay:10.37,2013-02-17 14:35:00,
2013-02-17 06:40:00,22.4,16.3,30.25,SSE,157,0.0,0.0,77,0.00,CLR,,0.00,WeatherDisplay:10.37,2013-02-17 14:40:00,
2013-02-17 06:45:00,21.8,15.4,30.25,SSE,157,0.0,0.0,76,0.00,CLR,,0.00,WeatherDisplay:10.37,2013-02-17 14:45:00,
2013-02-17 06:50:00,20.8,14.7,30.27,SSE,155,0.0,0.0,77,0.00,CLR,,0.00,WeatherDisplay:10.37,2013-02-17 14:50:00,
2013-02-17 06:55:00,20.2,14.1,30.27,SSE,155,0.0,0.0,77,0.00,CLR,,0.00,WeatherDisplay:10.37,2013-02-17 14:55:00,
2013-02-17 07:00:00,20.2,14.4,30.27,SSE,155,0.0,0.0,78,0.00,CLR,,0.00,WeatherDisplay:10.37,2013-02-17 15:00:00,
2013-02-17 07:05:00,20.0,14.5,30.28,SSE,155,0.0,0.0,79,0.00,CLR,,0.00,WeatherDisplay:10.37,2013-02-17 15:05:00,
2013-02-17 07:10:00,19.9,14.4,30.29,SSE,155,0.0,0.0,79,0.00,CLR,,0.00,WeatherDisplay:10.37,2013-02-17 15:10:00,
2013-02-17 07:15:00,19.9,14.4,30.29,SSE,155,0.0,0.0,79,0.00,CLR,,0.00,WeatherDisplay:10.37,2013-02-17 15:15:00,
2013-02-17 07:20:00,20.2,15.0,30.29,SSE,155,0.0,0.0,80,0.00,CLR,,0.00,WeatherDisplay:10.37,2013-02-17 15:20:00,
2013-02-17 07:25:00,20.5,15.0,30.28,SSE,155,0.0,0.0,79,0.00,CLR,,0.00,WeatherDisplay:10.37,2013-02-17 15:25:00,
2013-02-17 07:30:00,21.0,15.2,30.28,SSE,155,0.0,0.0,78,0.00,CLR,,0.00,WeatherDisplay:10.37,2013-02-17 15:30:00,
2013-02-17 07:35:00,21.9,15.8,30.28,SSE,155,0.0,0.0,77,0.00,CLR,,0.00,WeatherDisplay:10.37,2013-02-17 15:35:00,
2013-02-17 07:40:00,22.7,16.3,30.28,SSE,155,0.0,0.0,76,0.00,CLR,,0.00,WeatherDisplay:10.37,2013-02-17 15:40:00,
2013-02-17 07:45:00,23.5,16.4,30.28,SSE,155,0.0,0.0,74,0.00,CLR,,0.00,WeatherDisplay:10.37,2013-02-17 15:45:00,
2013-02-17 07:50:00,24.1,16.7,30.28,SSE,155,0.0,0.0,73,0.00,CLR,,0.00,WeatherDisplay:10.37,2013-02-17 15:50:00,
2013-02-17 07:55:00,24.5,16.8,30.27,SSE,155,0.0,0.0,72,0.00,CLR,,0.00,WeatherDisplay:10.37,2013-02-17 15:55:00,
2013-02-17 08:00:00,25.1,17.0,30.27,SSE,155,0.0,0.0,71,0.00,CLR,,0.00,WeatherDisplay:10.37,2013-02-17 16:00:00,
2013-02-17 08:05:00,25.7,17.6,30.28,SSE,155,0.0,0.0,71,0.00,CLR,,0.00,WeatherDisplay:10.37,2013-02-17 16:05:00,
2013-02-17 08:10:00,26.1,17.6,30.28,SSE,155,0.0,0.0,70,0.00,CLR,,0.00,WeatherDisplay:10.37,2013-02-17 16:10:00,
2013-02-17 08:15:00,26.6,17.5,30.28,SSE,155,0.0,0.0,68,0.00,CLR,,0.00,WeatherDisplay:10.37,2013-02-17 16:15:00,
2013-02-17 08:20:00,27.3,17.8,30.28,SSE,155,0.0,0.0,67,0.00,CLR,,0.00,WeatherDisplay:10.37,2013-02-17 16:20:00,
2013-02-17 08:25:00,28.5,18.2,30.27,SSE,155,0.0,0.0,65,0.00,CLR,,0.00,WeatherDisplay:10.37,2013-02-17 16:25:00,
2013-02-17 08:30:00,29.0,18.7,30.27,SSE,157,0.0,0.0,65,0.00,CLR,,0.00,WeatherDisplay:10.37,2013-02-17 16:30:00,
2013-02-17 08:35:00,29.1,19.5,30.27,SSE,155,0.0,0.0,67,0.00,CLR,,0.00,WeatherDisplay:10.37,2013-02-17 16:35:00,
2013-02-17 08:40:00,29.3,19.0,30.27,SSE,155,0.0,0.0,65,0.00,CLR,,0.00,WeatherDisplay:10.37,2013-02-17 16:40:00,
2013-02-17 08:45:00,29.8,19.1,30.26,SSE,155,0.0,0.0,64,0.00,CLR,,0.00,WeatherDisplay:10.37,2013-02-17 16:45:00,
2013-02-17 08:50:00,30.3,19.2,30.27,SSE,155,0.0,0.0,63,0.00,CLR,,0.00,WeatherDisplay:10.37,2013-02-17 16:50:00,
2013-02-17 08:55:00,30.6,19.1,30.26,SSE,155,0.0,0.0,62,0.00,CLR,,0.00,WeatherDisplay:10.37,2013-02-17 16:55:00,
2013-02-17 09:00:00,30.9,19.4,30.26,SSE,155,0.0,0.0,62,0.00,CLR,,0.00,WeatherDisplay:10.37,2013-02-17 17:00:00,
2013-02-17 09:05:00,31.2,19.7,30.26,SSE,155,0.0,0.0,62,0.00,CLR,,0.00,WeatherDisplay:10.37,2013-02-17 17:05:00,
2013-02-17 09:10:00,31.6,19.3,30.25,SSE,157,0.0,0.0,60,0.00,CLR,,0.00,WeatherDisplay:10.37,2013-02-17 17:10:00,
2013-02-17 09:15:00,32.1,19.8,30.26,SSE,157,0.0,0.0,60,0.00,CLR,,0.00,WeatherDisplay:10.37,2013-02-17 17:15:00,
2013-02-17 09:20:00,32.2,19.5,30.26,SSE,157,0.0,0.0,59,0.00,CLR,,0.00,WeatherDisplay:10.37,2013-02-17 17:20:00,
2013-02-17 09:25:00,32.7,19.9,30.25,SSE,155,0.0,0.0,59,0.00,CLR,,0.00,WeatherDisplay:10.37,2013-02-17 17:25:00,
2013-02-17 09:30:00,32.8,20.0,30.25,SSE,157,0.0,0.0,59,0.00,CLR,,0.00,WeatherDisplay:10.37,2013-02-17 17:30:00,
2013-02-17 09:35:00,33.2,19.2,30.25,SSE,157,0.0,0.0,56,0.00,CLR,,0.00,WeatherDisplay:10.37,2013-02-17 17:35:00,
2013-02-17 09:40:00,33.2,19.2,30.25,SSE,157,0.0,0.0,56,0.00,CLR,,0.00,WeatherDisplay:10.37,2013-02-17 17:40:00,
2013-02-17 09:45:00,33.4,19.4,30.25,SSE,155,0.0,0.0,56,0.00,CLR,,0.00,WeatherDisplay:10.37,2013-02-17 17:45:00,
2013-02-17 09:50:00,33.7,19.7,30.25,ESE,103,0.0,0.0,56,0.00,CLR,,0.00,WeatherDisplay:10.37,2013-02-17 17:50:00,
2013-02-17 09:55:00,33.8,18.9,30.25,NNE,30,0.0,0.0,54,0.00,CLR,,0.00,WeatherDisplay:10.37,2013-02-17 17:55:00,
2013-02-17 10:00:00,34.0,18.6,30.25,NNE,30,0.0,0.0,53,0.00,CLR,,0.00,WeatherDisplay:10.37,2013-02-17 18:00:00,
2013-02-17 10:05:00,34.0,18.6,30.25,NNE,30,0.0,0.0,53,0.00,CLR,,0.00,WeatherDisplay:10.37,2013-02-17 18:05:00,
2013-02-17 10:10:00,34.1,18.3,30.25,North,0,0.0,0.0,52,0.00,CLR,,0.00,WeatherDisplay:10.37,2013-02-17 18:10:00,
2013-02-17 10:15:00,34.1,17.8,30.25,North,0,0.0,0.0,51,0.00,CLR,,0.00,WeatherDisplay:10.37,2013-02-17 18:15:00,
2013-02-17 10:20:00,34.4,18.6,30.24,North,0,0.0,0.0,52,0.00,CLR,,0.00,WeatherDisplay:10.37,2013-02-17 18:20:00,
2013-02-17 10:25:00,35.0,18.7,30.23,North,0,0.0,0.0,51,0.00,CLR,,0.00,WeatherDisplay:10.37,2013-02-17 18:25:00,
2013-02-17 10:30:00,35.0,18.7,30.23,North,0,0.0,0.0,51,0.00,CLR,,0.00,WeatherDisplay:10.37,2013-02-17 18:30:00,
2013-02-17 10:35:00,34.9,18.1,30.23,NW,326,0.0,0.0,50,0.00,CLR,,0.00,WeatherDisplay:10.37,2013-02-17 18:35:00,
2013-02-17 10:40:00,35.2,17.9,30.23,NW,326,0.0,0.0,49,0.00,CLR,,0.00,WeatherDisplay:10.37,2013-02-17 18:40:00,
2013-02-17 10:45:00,35.5,17.2,30.22,NNW,328,0.0,0.0,47,0.00,CLR,,0.00,WeatherDisplay:10.37,2013-02-17 18:45:00,
2013-02-17 10:50:00,35.9,18.6,30.22,NNW,329,0.0,0.0,49,0.00,CLR,,0.00,WeatherDisplay:10.37,2013-02-17 18:50:00,
2013-02-17 10:55:00,36.3,17.5,30.22,NNW,333,0.0,0.0,46,0.00,CLR,,0.00,WeatherDisplay:10.37,2013-02-17 18:55:00,
2013-02-17 11:00:00,36.8,17.4,30.22,NNE,30,0.0,0.0,45,0.00,CLR,,0.00,WeatherDisplay:10.37,2013-02-17 19:00:00,
2013-02-17 11:05:00,36.9,17.5,30.22,North,349,0.0,0.0,45,0.00,CLR,,0.00,WeatherDisplay:10.37,2013-02-17 19:05:00,
2013-02-17 11:10:00,36.8,17.9,30.22,North,349,0.0,0.0,46,0.00,CLR,,0.00,WeatherDisplay:10.37,2013-02-17 19:10:00,
2013-02-17 11:15:00,36.9,18.0,30.22,NNW,336,0.0,0.0,46,0.00,CLR,,0.00,WeatherDisplay:10.37,2013-02-17 19:15:00,
2013-02-17 11:20:00,36.9,17.5,30.21,NNW,335,0.0,0.0,45,0.00,CLR,,0.00,WeatherDisplay:10.37,2013-02-17 19:20:00,
2013-02-17 11:25:00,37.0,17.6,30.21,NNW,336,0.0,0.0,45,0.00,CLR,,0.00,WeatherDisplay:10.37,2013-02-17 19:25:00,
2013-02-17 11:30:00,37.6,17.6,30.21,NNW,336,0.0,0.0,44,0.00,CLR,,0.00,WeatherDisplay:10.37,2013-02-17 19:30:00,
2013-02-17 11:35:00,38.0,16.9,30.21,NNE,23,0.0,0.0,42,0.00,CLR,,0.00,WeatherDisplay:10.37,2013-02-17 19:35:00,
2013-02-17 11:40:00,38.6,16.9,30.20,NNE,23,0.0,0.0,41,0.00,CLR,,0.00,WeatherDisplay:10.37,2013-02-17 19:40:00,
2013-02-17 11:45:00,39.3,17.5,30.19,NNE,23,0.0,0.0,41,0.00,CLR,,0.00,WeatherDisplay:10.37,2013-02-17 19:45:00,
2013-02-17 11:50:00,39.3,16.4,30.19,NNE,24,0.0,0.0,39,0.00,CLR,,0.00,WeatherDisplay:10.37,2013-02-17 19:50:00,
2013-02-17 11:55:00,39.3,16.4,30.18,NNE,20,0.0,0.0,39,0.00,CLR,,0.00,WeatherDisplay:10.37,2013-02-17 19:55:00,
2013-02-17 12:00:00,39.5,16.0,30.18,North,0,0.0,0.0,38,0.00,CLR,,0.00,WeatherDisplay:10.37,2013-02-17 20:00:00,
2013-02-17 12:05:00,39.3,16.4,30.19,North,0,0.0,0.0,39,0.00,CLR,,0.00,WeatherDisplay:10.37,2013-02-17 20:05:00,
2013-02-17 12:10:00,39.3,15.8,30.19,ENE,65,0.0,0.0,38,0.00,CLR,,0.00,WeatherDisplay:10.37,2013-02-17 20:10:00,
2013-02-17 12:15:00,39.8,16.2,30.19,ENE,65,0.0,0.0,38,0.00,CLR,,0.00,WeatherDisplay:10.37,2013-02-17 20:15:00,
2013-02-17 12:20:00,40.2,16.0,30.19,ENE,62,0.0,0.0,37,0.00,CLR,,0.00,WeatherDisplay:10.37,2013-02-17 20:20:00,
2013-02-17 12:25:00,40.8,13.9,30.18,ENE,58,0.0,0.0,33,0.00,CLR,,0.00,WeatherDisplay:10.37,2013-02-17 20:25:00,
2013-02-17 12:30:00,40.9,14.6,30.17,ENE,58,0.0,0.0,34,0.00,CLR,,0.00,WeatherDisplay:10.37,2013-02-17 20:30:00,
2013-02-17 12:35:00,41.5,13.8,30.17,ENE,61,0.0,0.0,32,0.00,CLR,,0.00,WeatherDisplay:10.37,2013-02-17 20:35:00,
2013-02-17 12:40:00,41.6,15.9,30.17,ENE,61,0.0,0.0,35,0.00,CLR,,0.00,WeatherDisplay:10.37,2013-02-17 20:40:00,
2013-02-17 12:45:00,41.6,15.9,30.16,NW,322,0.0,0.0,35,0.00,CLR,,0.00,WeatherDisplay:10.37,2013-02-17 20:45:00,
2013-02-17 12:50:00,41.1,15.5,30.17,North,357,0.0,0.0,35,0.00,CLR,,0.00,WeatherDisplay:10.37,2013-02-17 20:50:00,
2013-02-17 12:55:00,40.9,16.0,30.16,North,0,0.0,0.0,36,0.00,CLR,,0.00,WeatherDisplay:10.37,2013-02-17 20:55:00,
2013-02-17 13:00:00,41.1,15.5,30.16,NW,313,0.0,0.0,35,0.00,CLR,,0.00,WeatherDisplay:10.37,2013-02-17 21:00:00,
2013-02-17 13:05:00,41.1,15.5,30.18,NW,322,0.0,0.0,35,0.00,CLR,,0.00,WeatherDisplay:10.37,2013-02-17 21:05:00,
2013-02-17 13:10:00,41.1,14.8,30.18,NW,318,0.0,0.0,34,0.00,CLR,,0.00,WeatherDisplay:10.37,2013-02-17 21:10:00,
2013-02-17 13:15:00,41.2,14.9,30.17,NW,315,0.0,0.0,34,0.00,CLR,,0.00,WeatherDisplay:10.37,2013-02-17 21:15:00,
2013-02-17 13:20:00,41.6,13.9,30.17,NNE,18,0.0,0.0,32,0.00,CLR,,0.00,WeatherDisplay:10.37,2013-02-17 21:20:00,
2013-02-17 13:25:00,42.1,14.3,30.16,NNE,21,0.0,0.0,32,0.00,CLR,,0.00,WeatherDisplay:10.37,2013-02-17 21:25:00,
2013-02-17 13:30:00,42.2,13.7,30.16,NNE,16,0.0,0.0,31,0.00,CLR,,0.00,WeatherDisplay:10.37,2013-02-17 21:30:00,
2013-02-17 13:35:00,42.3,12.3,30.16,NE,45,0.0,0.0,29,0.00,CLR,,0.00,WeatherDisplay:10.37,2013-02-17 21:35:00,
2013-02-17 13:40:00,42.6,12.5,30.16,NE,45,0.0,0.0,29,0.00,CLR,,0.00,WeatherDisplay:10.37,2013-02-17 21:40:00,
2013-02-17 13:45:00,42.1,12.8,30.16,NNW,330,0.0,0.0,30,0.00,CLR,,0.00,WeatherDisplay:10.37,2013-02-17 21:45:00,
2013-02-17 13:50:00,41.8,11.8,30.16,North,6,0.0,0.0,29,0.00,CLR,,0.00,WeatherDisplay:10.37,2013-02-17 21:50:00,
2013-02-17 13:55:00,42.1,11.3,30.16,ENE,66,0.0,0.0,28,0.00,CLR,,0.00,WeatherDisplay:10.37,2013-02-17 21:55:00,
2013-02-17 14:00:00,42.2,11.4,30.15,ENE,62,0.0,0.0,28,0.00,CLR,,0.00,WeatherDisplay:10.37,2013-02-17 22:00:00,
2013-02-17 14:05:00,42.5,12.4,30.15,ENE,59,0.0,0.0,29,0.00,CLR,,0.00,WeatherDisplay:10.37,2013-02-17 22:05:00,
2013-02-17 14:10:00,43.1,12.2,30.15,ENE,59,0.0,0.0,28,0.00,CLR,,0.00,WeatherDisplay:10.37,2013-02-17 22:10:00,
2013-02-17 14:15:00,42.9,12.0,30.15,NNE,14,0.0,0.0,28,0.00,CLR,,0.00,WeatherDisplay:10.37,2013-02-17 22:15:00,
2013-02-17 14:20:00,42.9,12.0,30.15,NW,306,0.0,0.0,28,0.00,CLR,,0.00,WeatherDisplay:10.37,2013-02-17 22:20:00,
2013-02-17 14:25:00,42.8,11.9,30.14,WNW,301,0.0,0.0,28,0.00,CLR,,0.00,WeatherDisplay:10.37,2013-02-17 22:25:00,
2013-02-17 14:30:00,42.8,11.9,30.14,NW,306,0.0,0.0,28,0.00,CLR,,0.00,WeatherDisplay:10.37,2013-02-17 22:30:00,
2013-02-17 14:35:00,42.6,11.7,30.14,NW,306,0.0,0.0,28,0.00,CLR,,0.00,WeatherDisplay:10.37,2013-02-17 22:35:00,
2013-02-17 14:40:00,42.8,11.1,30.14,NW,306,0.0,0.0,27,0.00,CLR,,0.00,WeatherDisplay:10.37,2013-02-17 22:40:00,
2013-02-17 14:45:00,43.2,11.4,30.14,NNE,16,0.0,0.0,27,0.00,CLR,,0.00,WeatherDisplay:10.37,2013-02-17 22:45:00,
2013-02-17 14:50:00,43.6,10.9,30.12,NNE,16,0.0,0.0,26,0.00,CLR,,0.00,WeatherDisplay:10.37,2013-02-17 22:50:00,
2013-02-17 14:55:00,44.1,11.3,30.12,NNE,16,0.0,0.0,26,0.00,CLR,,0.00,WeatherDisplay:10.37,2013-02-17 22:55:00,
2013-02-17 15:00:00,43.8,11.1,30.12,North,4,0.0,0.0,26,0.00,CLR,,0.00,WeatherDisplay:10.37,2013-02-17 23:00:00,
2013-02-17 15:05:00,44.1,12.2,30.12,WNW,296,0.0,0.0,27,0.00,CLR,,0.00,WeatherDisplay:10.37,2013-02-17 23:05:00,
2013-02-17 15:10:00,43.6,11.8,30.12,WNW,299,0.0,0.0,27,0.00,CLR,,0.00,WeatherDisplay:10.37,2013-02-17 23:10:00,
2013-02-17 15:15:00,43.8,11.9,30.11,NW,313,0.0,0.0,27,0.00,CLR,,0.00,WeatherDisplay:10.37,2013-02-17 23:15:00,
2013-02-17 15:20:00,43.6,11.8,30.11,NNE,14,0.0,0.0,27,0.00,CLR,,0.00,WeatherDisplay:10.37,2013-02-17 23:20:00,
2013-02-17 15:25:00,43.6,12.6,30.11,North,353,0.0,0.0,28,0.00,CLR,,0.00,WeatherDisplay:10.37,2013-02-17 23:25:00,
2013-02-17 15:30:00,43.5,12.5,30.11,NW,318,0.0,0.0,28,0.00,CLR,,0.00,WeatherDisplay:10.37,2013-02-17 23:30:00,
2013-02-17 15:35:00,43.5,12.5,30.11,NW,322,0.0,0.0,28,0.00,CLR,,0.00,WeatherDisplay:10.37,2013-02-17 23:35:00,
2013-02-17 15:40:00,43.5,12.5,30.11,NNW,343,0.0,0.0,28,0.00,CLR,,0.00,WeatherDisplay:10.37,2013-02-17 23:40:00,
2013-02-17 15:45:00,43.3,12.3,30.11,NE,38,0.0,0.0,28,0.00,CLR,,0.00,WeatherDisplay:10.37,2013-02-17 23:45:00,
2013-02-17 15:50:00,43.3,12.3,30.11,NW,311,0.0,0.0,28,0.00,CLR,,0.00,WeatherDisplay:10.37,2013-02-17 23:50:00,
2013-02-17 15:55:00,42.9,12.0,30.11,NW,325,0.0,0.0,28,0.00,CLR,,0.00,WeatherDisplay:10.37,2013-02-17 23:55:00,
2013-02-17 16:00:00,42.9,12.0,30.11,WNW,301,0.0,0.0,28,0.00,CLR,,0.00,WeatherDisplay:10.37,2013-02-18 00:00:00,
2013-02-17 16:05:00,42.5,11.6,30.13,NW,319,0.0,0.0,28,0.00,CLR,,0.00,WeatherDisplay:10.37,2013-02-18 00:05:00,
2013-02-17 16:10:00,42.3,12.3,30.13,NW,320,0.0,0.0,29,0.00,CLR,,0.00,WeatherDisplay:10.37,2013-02-18 00:10:00,
2013-02-17 16:15:00,42.3,12.3,30.12,NW,318,0.0,0.0,29,0.00,CLR,,0.00,WeatherDisplay:10.37,2013-02-18 00:15:00,
2013-02-17 16:20:00,42.2,12.2,30.12,NW,325,0.0,0.0,29,0.00,CLR,,0.00,WeatherDisplay:10.37,2013-02-18 00:20:00,
2013-02-17 16:25:00,42.2,12.2,30.13,NW,323,0.0,0.0,29,0.00,CLR,,0.00,WeatherDisplay:10.37,2013-02-18 00:25:00,
2013-02-17 16:30:00,42.1,12.8,30.12,NW,313,0.0,0.0,30,0.00,CLR,,0.00,WeatherDisplay:10.37,2013-02-18 00:30:00,
2013-02-17 16:35:00,41.9,12.7,30.12,NW,313,0.0,0.0,30,0.00,CLR,,0.00,WeatherDisplay:10.37,2013-02-18 00:35:00,
2013-02-17 16:40:00,41.9,12.7,30.12,NW,318,0.0,0.0,30,0.00,CLR,,0.00,WeatherDisplay:10.37,2013-02-18 00:40:00,
2013-02-17 16:45:00,41.5,12.3,30.12,NW,312,0.0,0.0,30,0.00,CLR,,0.00,WeatherDisplay:10.37,2013-02-18 00:45:00,
2013-02-17 16:50:00,41.2,13.5,30.13,NW,312,0.0,0.0,32,0.00,CLR,,0.00,WeatherDisplay:10.37,2013-02-18 00:50:00,
2013-02-17 16:56:00,40.8,13.9,30.13,North,10,0.0,0.0,33,0.00,CLR,,0.00,WeatherDisplay:10.37,2013-02-18 00:56:00,
2013-02-17 17:01:00,40.5,13.6,30.13,North,10,0.0,0.0,33,0.00,CLR,,0.00,WeatherDisplay:10.37,2013-02-18 01:01:00,
2013-02-17 17:06:00,40.2,14.0,30.14,North,10,0.0,0.0,34,0.00,CLR,,0.00,WeatherDisplay:10.37,2013-02-18 01:06:00,
2013-02-17 17:11:00,39.9,14.4,30.14,North,10,0.0,0.0,35,0.00,CLR,,0.00,WeatherDisplay:10.37,2013-02-18 01:11:00,
2013-02-17 17:16:00,39.8,14.3,30.14,North,10,0.0,0.0,35,0.00,CLR,,0.00,WeatherDisplay:10.37,2013-02-18 01:16:00,
2013-02-17 17:21:00,39.5,14.7,30.14,North,10,0.0,0.0,36,0.00,CLR,,0.00,WeatherDisplay:10.37,2013-02-18 01:21:00,
2013-02-17 17:26:00,39.2,15.1,30.14,North,10,0.0,0.0,37,0.00,CLR,,0.00,WeatherDisplay:10.37,2013-02-18 01:26:00,
2013-02-17 17:31:00,38.9,14.8,30.14,North,10,0.0,0.0,37,0.00,CLR,,0.00,WeatherDisplay:10.37,2013-02-18 01:31:00,
2013-02-17 17:36:00,38.6,15.1,30.14,North,8,0.0,0.0,38,0.00,CLR,,0.00,WeatherDisplay:10.37,2013-02-18 01:36:00,
2013-02-17 17:41:00,38.2,14.8,30.15,North,10,0.0,0.0,38,0.00,CLR,,0.00,WeatherDisplay:10.37,2013-02-18 01:41:00,
2013-02-17 17:46:00,37.9,15.1,30.15,North,10,0.0,0.0,39,0.00,CLR,,0.00,WeatherDisplay:10.37,2013-02-18 01:46:00,
2013-02-17 17:51:00,37.6,14.8,30.15,North,10,0.0,0.0,39,0.00,CLR,,0.00,WeatherDisplay:10.37,2013-02-18 01:51:00,
2013-02-17 17:56:00,37.5,15.3,30.14,North,10,0.0,0.0,40,0.00,CLR,,0.00,WeatherDisplay:10.37,2013-02-18 01:56:00,
2013-02-17 18:01:00,37.3,15.2,30.15,North,10,0.0,0.0,40,0.00,CLR,,0.00,WeatherDisplay:10.37,2013-02-18 02:01:00,
2013-02-17 18:06:00,37.0,15.5,30.15,North,10,0.0,0.0,41,0.00,CLR,,0.00,WeatherDisplay:10.37,2013-02-18 02:06:00,
2013-02-17 18:11:00,36.8,15.3,30.16,North,10,0.0,0.0,41,0.00,CLR,,0.00,WeatherDisplay:10.37,2013-02-18 02:11:00,
2013-02-17 18:16:00,36.3,15.4,30.16,North,8,0.0,0.0,42,0.00,CLR,,0.00,WeatherDisplay:10.37,2013-02-18 02:16:00,
2013-02-17 18:21:00,35.9,15.0,30.16,North,10,0.0,0.0,42,0.00,CLR,,0.00,WeatherDisplay:10.37,2013-02-18 02:21:00,
2013-02-17 18:26:00,35.6,15.3,30.16,North,3,0.0,0.0,43,0.00,CLR,,0.00,WeatherDisplay:10.37,2013-02-18 02:26:00,
2013-02-17 18:31:00,35.2,17.0,30.17,North,356,0.0,0.0,47,0.00,CLR,,0.00,WeatherDisplay:10.37,2013-02-18 02:31:00,
2013-02-17 18:36:00,34.6,17.4,30.17,North,356,0.0,0.0,49,0.00,CLR,,0.00,WeatherDisplay:10.37,2013-02-18 02:36:00,
2013-02-17 18:41:00,34.3,18.0,30.17,North,356,0.0,0.0,51,0.00,CLR,,0.00,WeatherDisplay:10.37,2013-02-18 02:41:00,
2013-02-17 18:46:00,34.1,19.2,30.17,NNW,347,0.0,0.0,54,0.00,CLR,,0.00,WeatherDisplay:10.37,2013-02-18 02:46:00,
2013-02-17 18:51:00,34.0,19.5,30.17,NNW,347,0.0,0.0,55,0.00,CLR,,0.00,WeatherDisplay:10.37,2013-02-18 02:51:00,
2013-02-17 18:56:00,33.8,19.7,30.17,NNW,347,0.0,0.0,56,0.00,CLR,,0.00,WeatherDisplay:10.37,2013-02-18 02:56:00,
2013-02-17 19:01:00,33.5,19.9,30.17,NNW,347,0.0,0.0,57,0.00,CLR,,0.00,WeatherDisplay:10.37,2013-02-18 03:01:00,
2013-02-17 19:06:00,33.4,19.8,30.15,NNW,347,0.0,0.0,57,0.00,CLR,,0.00,WeatherDisplay:10.37,2013-02-18 03:06:00,
2013-02-17 19:11:00,33.1,19.9,30.15,NNW,347,0.0,0.0,58,0.00,CLR,,0.00,WeatherDisplay:10.37,2013-02-18 03:11:00,
2013-02-17 19:16:00,32.9,19.7,30.15,NNW,347,0.0,0.0,58,0.00,CLR,,0.00,WeatherDisplay:10.37,2013-02-18 03:16:00,
2013-02-17 19:21:00,32.8,20.0,30.15,NNW,347,0.0,0.0,59,0.00,CLR,,0.00,WeatherDisplay:10.37,2013-02-18 03:21:00,
2013-02-17 19:26:00,32.5,19.7,30.15,NNW,347,0.0,0.0,59,0.00,CLR,,0.00,WeatherDisplay:10.37,2013-02-18 03:26:00,
2013-02-17 19:31:00,32.4,20.0,30.16,NNW,330,0.0,0.0,60,0.00,CLR,,0.00,WeatherDisplay:10.37,2013-02-18 03:31:00,
2013-02-17 19:36:00,32.1,20.2,30.16,NNW,330,0.0,0.0,61,0.00,CLR,,0.00,WeatherDisplay:10.37,2013-02-18 03:36:00,
2013-02-17 19:41:00,31.9,20.3,30.16,NNW,330,0.0,0.0,62,0.00,CLR,,0.00,WeatherDisplay:10.37,2013-02-18 03:41:00,
2013-02-17 19:46:00,31.8,20.3,30.16,NNW,330,0.0,0.0,62,0.00,CLR,,0.00,WeatherDisplay:10.37,2013-02-18 03:46:00,
2013-02-17 19:51:00,31.6,20.1,30.16,NNW,330,0.0,0.0,62,0.00,CLR,,0.00,WeatherDisplay:10.37,2013-02-18 03:51:00,
2013-02-17 19:56:00,31.5,20.3,30.16,NNW,330,0.0,0.0,63,0.00,CLR,,0.00,WeatherDisplay:10.37,2013-02-18 03:56:00,
2013-02-17 20:01:00,31.3,20.2,30.16,NNW,330,0.0,0.0,63,0.00,CLR,,0.00,WeatherDisplay:10.37,2013-02-18 04:01:00,
2013-02-17 20:06:00,31.0,20.2,30.14,NNW,330,0.0,0.0,64,0.00,CLR,,0.00,WeatherDisplay:10.37,2013-02-18 04:06:00,
2013-02-17 20:11:00,30.9,20.1,30.14,NNW,330,0.0,0.0,64,0.00,CLR,,0.00,WeatherDisplay:10.37,2013-02-18 04:11:00,
2013-02-17 20:16:00,30.6,20.2,30.14,NNW,330,0.0,0.0,65,0.00,CLR,,0.00,WeatherDisplay:10.37,2013-02-18 04:16:00,
2013-02-17 20:21:00,30.4,20.0,30.14,NNW,330,0.0,0.0,65,0.00,CLR,,0.00,WeatherDisplay:10.37,2013-02-18 04:21:00,
2013-02-17 20:26:00,30.3,20.3,30.14,NNW,330,0.0,0.0,66,0.00,CLR,,0.00,WeatherDisplay:10.37,2013-02-18 04:26:00,
2013-02-17 20:31:00,30.3,20.3,30.14,NNW,330,0.0,0.0,66,0.00,CLR,,0.00,WeatherDisplay:10.37,2013-02-18 04:31:00,
2013-02-17 20:36:00,30.1,20.1,30.14,NNW,330,0.0,0.0,66,0.00,CLR,,0.00,WeatherDisplay:10.37,2013-02-18 04:36:00,
2013-02-17 20:41:00,30.0,20.4,30.14,NNW,330,0.0,0.0,67,0.00,CLR,,0.00,WeatherDisplay:10.37,2013-02-18 04:41:00,
2013-02-17 20:46:00,29.8,20.2,30.14,NNW,330,0.0,0.0,67,0.00,CLR,,0.00,WeatherDisplay:10.37,2013-02-18 04:46:00,
2013-02-17 20:51:00,29.7,20.1,30.14,NNW,330,0.0,0.0,67,0.00,CLR,,0.00,WeatherDisplay:10.37,2013-02-18 04:51:00,
2013-02-17 20:56:00,29.7,20.1,30.14,NNW,330,0.0,0.0,67,0.00,CLR,,0.00,WeatherDisplay:10.37,2013-02-18 04:56:00,
2013-02-17 21:00:00,29.7,20.1,30.15,NNW,330,0.0,0.0,67,0.00,CLR,,0.00,WeatherDisplay:10.37,2013-02-18 05:00:00,
2013-02-17 21:01:00,29.7,20.4,30.15,NNW,330,0.0,0.0,68,0.00,CLR,,0.00,WeatherDisplay:10.37,2013-02-18 05:01:00,
2013-02-17 21:06:00,29.7,20.4,30.13,NNW,330,0.0,0.0,68,0.00,CLR,,0.00,WeatherDisplay:10.37,2013-02-18 05:06:00,
2013-02-17 21:11:00,29.5,20.2,30.13,NNW,330,0.0,0.0,68,0.00,CLR,,0.00,WeatherDisplay:10.37,2013-02-18 05:11:00,
2013-02-17 21:16:00,29.5,20.2,30.13,NNW,330,0.0,0.0,68,0.00,CLR,,0.00,WeatherDisplay:10.37,2013-02-18 05:16:00,
2013-02-17 21:21:00,29.5,20.2,30.13,NNW,330,0.0,0.0,68,0.00,CLR,,0.00,WeatherDisplay:10.37,2013-02-18 05:21:00,
2013-02-17 21:24:00,29.5,20.2,30.13,NNW,330,0.0,0.0,68,0.00,CLR,,0.00,WeatherDisplay:10.37,2013-02-18 05:24:00,
2013-02-17 21:30:00,29.5,20.2,30.13,NNW,330,0.0,0.0,68,0.00,CLR,,0.00,WeatherDisplay:10.37,2013-02-18 05:30:00,
2013-02-17 21:35:00,29.4,20.5,30.13,NNW,330,0.0,0.0,69,0.00,CLR,,0.00,WeatherDisplay:10.37,2013-02-18 05:35:00,
2013-02-17 21:40:00,29.3,20.4,30.13,NNW,330,0.0,0.0,69,0.00,CLR,,0.00,WeatherDisplay:10.37,2013-02-18 05:40:00,
2013-02-17 21:45:00,29.3,20.4,30.12,NNW,330,0.0,0.0,69,0.00,CLR,,0.00,WeatherDisplay:10.37,2013-02-18 05:45:00,
2013-02-17 21:50:00,29.1,20.2,30.12,NNW,330,0.0,0.0,69,0.00,CLR,,0.00,WeatherDisplay:10.37,2013-02-18 05:50:00,
2013-02-17 21:55:00,28.7,19.8,30.12,NNW,330,0.0,0.0,69,0.00,CLR,,0.00,WeatherDisplay:10.37,2013-02-18 05:55:00,
2013-02-17 22:00:00,28.5,20.0,30.12,NNW,330,0.0,0.0,70,0.00,CLR,,0.00,WeatherDisplay:10.37,2013-02-18 06:00:00,
2013-02-17 22:05:00,28.5,20.0,30.10,NNW,330,0.0,0.0,70,0.00,CLR,,0.00,WeatherDisplay:10.37,2013-02-18 06:05:00,
2013-02-17 22:10:00,28.4,19.9,30.11,NNW,330,0.0,0.0,70,0.00,CLR,,0.00,WeatherDisplay:10.37,2013-02-18 06:10:00,
2013-02-17 22:15:00,28.5,20.3,30.10,NNW,330,0.0,0.0,71,0.00,CLR,,0.00,WeatherDisplay:10.37,2013-02-18 06:15:00,
2013-02-17 22:20:00,28.4,20.2,30.11,NNW,330,0.0,0.0,71,0.00,CLR,,0.00,WeatherDisplay:10.37,2013-02-18 06:20:00,
2013-02-17 22:25:00,28.4,20.2,30.11,NNW,330,0.0,0.0,71,0.00,CLR,,0.00,WeatherDisplay:10.37,2013-02-18 06:25:00,
2013-02-17 22:30:00,28.2,20.0,30.11,NNW,330,0.0,0.0,71,0.00,CLR,,0.00,WeatherDisplay:10.37,2013-02-18 06:30:00,
2013-02-17 22:35:00,28.1,19.9,30.11,NNW,330,0.0,0.0,71,0.00,CLR,,0.00,WeatherDisplay:10.37,2013-02-18 06:35:00,
2013-02-17 22:40:00,27.9,19.7,30.11,NNW,330,0.0,0.0,71,0.00,CLR,,0.00,WeatherDisplay:10.37,2013-02-18 06:40:00,
2013-02-17 22:45:00,27.8,19.6,30.11,NNW,330,0.0,0.0,71,0.00,CLR,,0.00,WeatherDisplay:10.37,2013-02-18 06:45:00,
2013-02-17 22:50:00,27.5,19.3,30.11,NNW,330,0.0,0.0,71,0.00,CLR,,0.00,WeatherDisplay:10.37,2013-02-18 06:50:00,
2013-02-17 22:55:00,27.2,19.4,30.10,NNW,330,0.0,0.0,72,0.00,CLR,,0.00,WeatherDisplay:10.37,2013-02-18 06:55:00,
2013-02-17 23:00:00,26.9,19.1,30.10,NNW,330,0.0,0.0,72,0.00,CLR,,0.00,WeatherDisplay:10.37,2013-02-18 07:00:00,
2013-02-17 23:05:00,26.7,19.2,30.09,NNW,330,0.0,0.0,73,0.00,CLR,,0.00,WeatherDisplay:10.37,2013-02-18 07:05:00,
2013-02-17 23:10:00,26.4,18.9,30.10,NNW,330,0.0,0.0,73,0.00,CLR,,0.00,WeatherDisplay:10.37,2013-02-18 07:10:00,
2013-02-17 23:15:00,26.3,18.8,30.09,NNW,330,0.0,0.0,73,0.00,CLR,,0.00,WeatherDisplay:10.37,2013-02-18 07:15:00,
2013-02-17 23:20:00,26.1,18.6,30.09,NNW,330,0.0,0.0,73,0.00,CLR,,0.00,WeatherDisplay:10.37,2013-02-18 07:20:00,
2013-02-17 23:25:00,26.1,18.6,30.09,NNW,330,0.0,0.0,73,0.00,CLR,,0.00,WeatherDisplay:10.37,2013-02-18 07:25:00,
2013-02-17 23:30:00,26.1,18.6,30.09,NNW,330,0.0,0.0,73,0.00,CLR,,0.00,WeatherDisplay:10.37,2013-02-18 07:30:00,
2013-02-17 23:35:00,25.8,18.3,30.09,NNW,330,0.0,0.0,73,0.00,CLR,,0.00,WeatherDisplay:10.37,2013-02-18 07:35:00,
2013-02-17 23:40:00,25.7,18.2,30.09,NNW,330,0.0,0.0,73,0.00,CLR,,0.00,WeatherDisplay:10.37,2013-02-18 07:40:00,
2013-02-17 23:46:00,25.6,18.1,30.08,NNW,332,0.0,0.0,73,0.00,CLR,,0.00,WeatherDisplay:10.37,2013-02-18 07:46:00,
2013-02-17 23:51:00,25.4,17.9,30.09,NNW,330,0.0,0.0,73,0.00,CLR,,0.00,WeatherDisplay:10.37,2013-02-18 07:51:00,
2013-02-17 23:56:00,25.3,18.2,30.09,NNW,330,0.0,0.0,74,0.00,CLR,,0.00,WeatherDisplay:10.37,2013-02-18 07:56:00,